TimeMDT,TemperatureF,Dew PointF,Humidity,Sea Level PressureIn,VisibilityMPH,Wind Direction,Wind SpeedMPH,Gust SpeedMPH,PrecipitationIn,Events,Conditions,WindDirDegrees,DateUTC
12:15 AM,60.8,41.0,48,30.43,10.0,Calm,Calm,-,N/A,,Clear,0,2013-07-31 06:15:00
12:55 AM,59.0,39.2,48,30.43,10.0,North,3.5,-,N/A,,Clear,10,2013-07-31 06:55:00
1:15 AM,60.8,41.0,48,30.43,10.0,Calm,Calm,-,N/A,,Clear,0,2013-07-31 07:15:00
1:35 AM,60.8,41.0,48,30.44,10.0,North,4.6,-,N/A,,Clear,10,2013-07-31 07:35:00
1:55 AM,55.4,39.2,54,30.44,10.0,North,3.5,-,N/A,,Clear,360,2013-07-31 07:55:00
2:15 AM,57.2,42.8,59,30.44,10.0,North,4.6,-,N/A,,Clear,10,2013-07-31 08:15:00
2:35 AM,57.2,42.8,59,30.43,10.0,Calm,Calm,-,N/A,,Clear,0,2013-07-31 08:35:00
2:55 AM,57.2,42.8,59,30.43,10.0,Calm,Calm,-,N/A,,Clear,0,2013-07-31 08:55:00
3:15 AM,57.2,42.8,59,30.44,10.0,Calm,Calm,-,N/A,,Clear,0,2013-07-31 09:15:00
3:35 AM,55.4,42.8,63,30.44,10.0,Calm,Calm,-,N/A,,Clear,0,2013-07-31 09:35:00
3:55 AM,55.4,41.0,58,30.44,10.0,Calm,Calm,-,N/A,,Clear,0,2013-07-31 09:55:00
4:15 AM,55.4,41.0,58,30.43,10.0,East,6.9,-,N/A,,Clear,80,2013-07-31 10:15:00
4:35 AM,55.4,42.8,63,30.44,10.0,Calm,Calm,-,N/A,,Clear,0,2013-07-31 10:35:00
4:55 AM,53.6,39.2,58,30.45,10.0,North,3.5,-,N/A,,Clear,360,2013-07-31 10:55:00
5:15 AM,51.8,39.2,62,30.45,10.0,North,5.8,-,N/A,,Clear,360,2013-07-31 11:15:00
5:35 AM,51.8,39.2,62,30.46,10.0,NNE,4.6,-,N/A,,Clear,20,2013-07-31 11:35:00
5:55 AM,53.6,41.0,62,30.46,10.0,North,3.5,-,N/A,,Clear,10,2013-07-31 11:55:00
6:15 AM,53.6,39.2,58,30.47,10.0,North,4.6,-,N/A,,Clear,360,2013-07-31 12:15:00
6:35 AM,53.6,39.2,58,30.47,10.0,North,5.8,-,N/A,,Clear,350,2013-07-31 12:35:00
6:55 AM,53.6,41.0,62,30.48,10.0,Calm,Calm,-,N/A,,Clear,0,2013-07-31 12:55:00
7:15 AM,55.4,42.8,63,30.49,10.0,NNE,4.6,-,N/A,,Clear,20,2013-07-31 13:15:00
7:35 AM,60.8,42.8,52,30.49,10.0,North,4.6,-,N/A,,Clear,10,2013-07-31 13:35:00
7:55 AM,62.6,42.8,48,30.50,10.0,Calm,Calm,-,N/A,,Clear,0,2013-07-31 13:55:00
8:15 AM,64.4,42.8,45,30.50,10.0,Calm,Calm,-,N/A,,Clear,0,2013-07-31 14:15:00
8:35 AM,64.4,42.8,45,30.50,10.0,Calm,Calm,-,N/A,,Clear,0,2013-07-31 14:35:00
8:55 AM,66.2,42.8,43,30.50,10.0,Calm,Calm,-,N/A,,Clear,0,2013-07-31 14:55:00
9:15 AM,69.8,42.8,38,30.50,10.0,Calm,Calm,-,N/A,,Clear,0,2013-07-31 15:15:00
9:35 AM,73.4,41.0,31,30.50,10.0,Calm,Calm,-,N/A,,Clear,0,2013-07-31 15:35:00
9:55 AM,75.2,42.8,31,30.50,10.0,Calm,Calm,-,N/A,,Clear,0,2013-07-31 15:55:00
10:15 AM,75.2,42.8,31,30.50,10.0,Calm,Calm,-,N/A,,Clear,0,2013-07-31 16:15:00
10:35 AM,-9999,-9999,N/A,30.48,10.0,Calm,Calm,-,N/A,,Clear,0,2013-07-31 16:35:00
10:55 AM,78.8,41.0,26,30.49,10.0,Calm,Calm,-,N/A,,Clear,0,2013-07-31 16:55:00
11:15 AM,80.6,41.0,24,30.48,10.0,Calm,Calm,-,N/A,,Clear,0,2013-07-31 17:15:00
11:35 AM,80.6,37.4,21,30.47,10.0,Calm,Calm,-,N/A,,Clear,0,2013-07-31 17:35:00
11:55 AM,82.4,39.2,21,30.47,10.0,ESE,3.5,-,N/A,,Clear,110,2013-07-31 17:55:00
12:15 PM,82.4,37.4,20,30.46,10.0,Calm,Calm,-,N/A,,Clear,0,2013-07-31 18:15:00
12:35 PM,84.2,37.4,19,30.45,10.0,NW,9.2,-,N/A,,Clear,320,2013-07-31 18:35:00
12:55 PM,84.2,37.4,19,30.45,10.0,Calm,Calm,-,N/A,,Clear,0,2013-07-31 18:55:00
1:15 PM,84.2,37.4,19,30.43,10.0,SW,10.4,16.1,N/A,,Clear,220,2013-07-31 19:15:00
1:35 PM,86.0,37.4,18,30.43,10.0,NW,8.1,-,N/A,,Clear,310,2013-07-31 19:35:00
1:55 PM,84.2,37.4,19,30.42,10.0,West,13.8,17.3,N/A,,Clear,270,2013-07-31 19:55:00
2:15 PM,84.2,35.6,18,30.41,10.0,West,9.2,-,N/A,,Clear,270,2013-07-31 20:15:00
2:35 PM,87.8,37.4,17,30.40,10.0,West,9.2,20.7,N/A,,Clear,270,2013-07-31 20:35:00
2:55 PM,86.0,35.6,17,30.39,10.0,NNW,8.1,-,N/A,,Mostly Cloudy,330,2013-07-31 20:55:00
3:15 PM,-9999,-9999,N/A,30.38,10.0,Calm,Calm,-,N/A,,Scattered Clouds,0,2013-07-31 21:15:00
3:35 PM,-9999,-9999,N/A,30.37,10.0,NNW,9.2,17.3,N/A,,Partly Cloudy,340,2013-07-31 21:35:00
3:55 PM,-9999,-9999,N/A,30.36,10.0,NW,17.3,23.0,N/A,,Clear,310,2013-07-31 21:55:00
4:15 PM,-9999,-9999,N/A,30.35,10.0,SW,4.6,-,N/A,,Clear,230,2013-07-31 22:15:00
4:35 PM,87.8,33.8,15,30.35,10.0,WSW,6.9,-,N/A,,Scattered Clouds,250,2013-07-31 22:35:00
4:55 PM,-9999,-9999,N/A,30.33,10.0,WNW,10.4,-,N/A,,Scattered Clouds,300,2013-07-31 22:55:00
5:15 PM,-9999,-9999,N/A,30.33,10.0,WNW,9.2,-,N/A,,Partly Cloudy,290,2013-07-31 23:15:00
5:35 PM,-9999,-9999,N/A,30.33,10.0,WSW,5.8,-,N/A,,Partly Cloudy,240,2013-07-31 23:35:00
5:55 PM,-9999,-9999,N/A,30.33,10.0,WSW,8.1,-,N/A,,Mostly Cloudy,250,2013-07-31 23:55:00
6:15 PM,-9999,-9999,N/A,30.32,10.0,SW,11.5,-,N/A,,Mostly Cloudy,220,2013-08-01 00:15:00
6:35 PM,86.0,37.4,18,30.32,10.0,SW,15.0,19.6,N/A,,Mostly Cloudy,220,2013-08-01 00:35:00
6:55 PM,84.2,37.4,19,30.33,10.0,SW,11.5,-,N/A,,Overcast,220,2013-08-01 00:55:00
7:15 PM,82.4,37.4,20,30.33,10.0,SW,13.8,-,N/A,,Scattered Clouds,230,2013-08-01 01:15:00
7:35 PM,82.4,37.4,20,30.33,10.0,SW,11.5,-,N/A,,Clear,220,2013-08-01 01:35:00
7:55 PM,78.8,41.0,26,30.35,10.0,ESE,15.0,19.6,N/A,,Clear,120,2013-08-01 01:55:00
8:15 PM,75.2,50.0,41,30.35,10.0,ESE,19.6,33.4,N/A,,Mostly Cloudy,120,2013-08-01 02:15:00
8:35 PM,73.4,50.0,44,30.35,10.0,ESE,18.4,24.2,N/A,,Partly Cloudy,120,2013-08-01 02:35:00
8:55 PM,73.4,48.2,41,30.36,10.0,ESE,20.7,25.3,N/A,,Clear,120,2013-08-01 02:55:00
9:15 PM,71.6,48.2,43,30.36,10.0,ESE,21.9,27.6,N/A,,Clear,120,2013-08-01 03:15:00
9:35 PM,71.6,50.0,46,30.38,10.0,ESE,19.6,26.5,N/A,,Clear,110,2013-08-01 03:35:00
9:55 PM,71.6,51.8,50,30.38,10.0,ESE,17.3,-,N/A,,Clear,120,2013-08-01 03:55:00
10:15 PM,69.8,51.8,53,30.39,10.0,ESE,17.3,21.9,N/A,,Clear,120,2013-08-01 04:15:00
10:35 PM,69.8,51.8,53,30.39,10.0,SE,15.0,-,N/A,,Partly Cloudy,130,2013-08-01 04:35:00
10:55 PM,69.8,51.8,53,30.39,10.0,ESE,16.1,-,N/A,,Partly Cloudy,120,2013-08-01 04:55:00
11:15 PM,69.8,50.0,49,30.39,10.0,ESE,12.7,-,N/A,,Clear,120,2013-08-01 05:15:00
11:35 PM,69.8,50.0,49,30.38,10.0,ESE,10.4,-,N/A,,Clear,110,2013-08-01 05:35:00
11:55 PM,68.0,50.0,52,30.39,10.0,ESE,10.4,-,N/A,,Clear,110,2013-08-01 05:55:00